Seattle Boeing, WA

6:50 AM PST on November 12, 2019 (GMT -0800)
Boeing Field-King County International

Weather History for KBFI - November, 2019

Change the Weather History Date:

Saturday, November 9, 2019

  Actual Average Record
Temperature  
Mean Temperature 50 °F -  
Max Temperature 53 °F 52 °F 66 °F (1997)
Min Temperature 48 °F 41 °F 27 °F (1948)
Degree Days  
Heating Degree Days 14    
Moisture  
Dew Point 48 °F    
Average Humidity 91    
Maximum Humidity 96    
Minimum Humidity 83    
Precipitation  
Precipitation 0.01 in - - ()
Sea Level Pressure  
Sea Level Pressure 30.22 in    
Wind  
Wind Speed 5 mph ()    
Max Wind Speed 10 mph    
Max Gust Speed -    
Visibility 4.5 miles    
Events Rain    
Averages and records for this station are not official NWS values.
T = Trace of Precipitation, MM = Missing Value Source: Averaged Metar Reports

Daily Weather History Graph

Daily Weather History Graph

Search for Another Location

Airport or City:

Astronomy

Nov. 09, 2019 Rise Set
Actual Time 7:04 AM PST 4:40 PM PST
Civil Twilight 6:32 AM PST 5:13 PM PST
Nautical Twilight 5:55 AM PST 5:50 PM PST
Astronomical Twilight 5:19 AM PST 6:26 PM PST
Moon 3:58 PM PST (11/9) 3:47 AM PST (11/9)
Length of Visible Light 10h 41m
Length of Day
9h 35m
Waxing Gibbous, 93% of the Moon is Illuminated
Nov 9
Waxing Gibbous
Nov 12
Full
Nov 19
Last Quarter
Nov 26
New
Dec 3
First Quarter

Hourly Weather History & Observations

Time (PST) Temp. Dew Point Humidity Pressure Visibility Wind Dir Wind Speed Gust Speed Precip Events Conditions
12:53 AM 48.9 °F 44.1 °F 83% 30.22 in 10.0 mi SE 10.4 mph - N/A   Overcast
1:53 AM 48.0 °F 44.1 °F 86% 30.21 in 9.0 mi SSE 10.4 mph - 0.00 in Rain Light Rain
2:53 AM 48.0 °F 45.0 °F 89% 30.22 in 10.0 mi SE 4.6 mph - 0.00 in   Overcast
3:53 AM 48.0 °F 46.0 °F 93% 30.19 in 9.0 mi SSE 3.5 mph - 0.00 in Rain Light Rain
4:53 AM 48.0 °F 46.0 °F 93% 30.21 in 8.0 mi SE 4.6 mph - 0.00 in Rain Light Rain
5:53 AM 48.9 °F 46.9 °F 93% 30.20 in 8.0 mi ESE 4.6 mph - 0.00 in Rain Light Rain
6:53 AM 48.0 °F 46.0 °F 93% 30.22 in 6.0 mi SE 5.8 mph - 0.01 in Rain Light Rain
7:53 AM 48.9 °F 46.0 °F 90% 30.22 in 4.0 mi SSE 5.8 mph - 0.00 in Rain Light Rain
8:25 AM 48.9 °F 46.9 °F 93% 30.23 in 2.0 mi Calm Calm - 0.00 in Rain Light Rain
8:47 AM 48.2 °F 46.4 °F 93% 30.24 in 2.0 mi SSE 3.5 mph - 0.00 in Rain Light Rain
8:53 AM 48.9 °F 46.9 °F 93% 30.23 in 2.0 mi SSE 3.5 mph - 0.00 in Rain Light Rain
9:15 AM 48.9 °F 46.9 °F 93% 30.24 in 2.0 mi SSE 3.5 mph - 0.00 in   Overcast
9:53 AM 50.0 °F 48.0 °F 93% 30.24 in 2.0 mi SE 5.8 mph - 0.00 in Rain Light Rain
10:53 AM 51.1 °F 48.0 °F 89% 30.25 in 2.0 mi SSE 6.9 mph - 0.00 in   Overcast
11:00 AM 51.1 °F 48.0 °F 89% 30.25 in 3.0 mi SSE 6.9 mph - N/A   Overcast
11:53 AM 51.1 °F 48.0 °F 89% 30.24 in 3.0 mi SE 9.2 mph - 0.00 in Rain Light Rain
11:59 AM 51.1 °F 48.0 °F 89% 30.24 in 2.0 mi SSE 8.1 mph - 0.00 in Rain Light Rain
12:53 PM 52.0 °F 48.9 °F 89% 30.22 in 2.0 mi SSE 5.8 mph - 0.00 in   Overcast
1:53 PM 52.0 °F 48.9 °F 89% 30.19 in 10.0 mi SSE 5.8 mph - N/A   Overcast
2:03 PM 53.1 °F 48.9 °F 86% 30.19 in 10.0 mi South 3.5 mph - N/A   Overcast
2:53 PM 53.1 °F 48.0 °F 83% 30.20 in 10.0 mi Calm Calm - N/A   Overcast
3:53 PM 52.0 °F 48.0 °F 86% 30.20 in 5.0 mi South 5.8 mph - 0.00 in Rain Light Rain
3:56 PM 52.0 °F 48.0 °F 86% 30.20 in 3.0 mi South 4.6 mph - 0.00 in Rain Light Rain
4:53 PM 52.0 °F 48.9 °F 89% 30.20 in 3.0 mi Calm Calm - 0.00 in Rain Light Rain
5:53 PM 52.0 °F 48.9 °F 89% 30.20 in 3.0 mi SSE 3.5 mph - 0.00 in   Overcast
6:53 PM 51.1 °F 48.9 °F 92% 30.21 in 3.0 mi SE 4.6 mph - N/A   Overcast
7:00 PM 51.1 °F 48.9 °F 92% 30.21 in 2.5 mi SSE 4.6 mph - N/A   Overcast
7:53 PM 51.1 °F 50.0 °F 96% 30.21 in 2.5 mi SSE 4.6 mph - N/A   Overcast
8:00 PM 51.1 °F 50.0 °F 96% 30.20 in 2.5 mi SSE 4.6 mph - N/A   Overcast
8:12 PM 51.1 °F 50.0 °F 96% 30.21 in 3.0 mi SE 3.5 mph - N/A   Overcast
8:31 PM 51.1 °F 50.0 °F 96% 30.21 in 3.0 mi SSE 3.5 mph - N/A   Overcast
8:39 PM 51.1 °F 50.0 °F 96% 30.21 in 2.5 mi SE 4.6 mph - N/A   Overcast
8:53 PM 51.1 °F 50.0 °F 96% 30.21 in 3.0 mi SE 4.6 mph - N/A   Overcast
9:53 PM 51.1 °F 50.0 °F 96% 30.22 in 4.0 mi SSE 3.5 mph - N/A   Overcast
10:53 PM 51.1 °F 50.0 °F 96% 30.22 in 4.0 mi SE 4.6 mph - N/A   Overcast
11:53 PM 51.1 °F 50.0 °F 96% 30.23 in 2.5 mi SE 3.5 mph - N/A   Overcast